Location: Anne Acres
(38.7004°N, 75.0827°W)
Time: 18:55:23
(UTC+00:00)

Explorer 11/Cluster Stage 4 - Visible Passes

Search period start: 07 November 2024 00:00
Search period end: 17 November 2024 00:00
Orbit: 464 x 1205 km, 28.8° (Epoch: 06 November)

Date Brightness Start Highest point End Pass type
(mag) Time Alt. Az. Time Alt. Az. Time Alt. Az.
09 Nov 8.3 11:05:14 10° SSW 11:06:57 13° SSE 11:08:38 10° SE visible
10 Nov 8.3 10:45:19 10° SSW 10:47:23 14° S 10:49:21 10° SE visible
11 Nov 8.2 10:25:22 10° SSW 10:27:47 15° S 10:30:03 10° SE visible
12 Nov 8.1 10:05:38 11° SSW 10:08:10 17° S 10:10:43 10° SE visible
13 Nov 8.0 09:47:17 16° SSW 09:48:31 18° S 09:51:22 10° SE visible
14 Nov 7.9 09:28:49 20° S 09:28:52 20° S 09:32:00 10° SE visible
14 Nov 7.8 11:12:57 10° SW 11:15:57 19° S 11:18:42 10° SE visible
15 Nov 8.1 09:10:19 20° SSE 09:10:19 20° SSE 09:12:35 10° SE visible
15 Nov 7.8 10:53:03 10° WSW 10:56:17 20° S 10:59:11 10° SE visible
16 Nov 8.6 08:51:45 17° SE 08:51:45 17° SE 08:53:08 10° ESE visible
16 Nov 7.8 10:33:17 11° WSW 10:36:35 21° S 10:39:40 10° SE visible
